Location: Lombard
(41.8800°N, 88.0080°W)
Time: 06:30:51
(UTC-05:00)

LO-87 - Visible Passes

Search period start: 22 May 2022 00:00
Search period end: 01 June 2022 00:00
Orbit: 455 x 472 km, 97.4° (Epoch: 22 May)

Date Brightness Start Highest point End Pass type
(mag) Time Alt. Az. Time Alt. Az. Time Alt. Az.
22 May ? 00:20:38 28° N 00:20:38 28° N 00:22:26 10° N visible
22 May ? 23:49:30 22° NE 23:49:30 22° NE 23:51:17 10° NNE visible
23 May ? 01:23:25 11° NW 01:23:25 11° NW 01:23:36 10° NW visible
23 May ? 23:18:19 12° NE 23:18:19 12° NE 23:19:09 10° NE visible
24 May ? 00:52:14 21° NW 00:52:14 21° NW 00:53:39 10° NNW visible
25 May ? 00:21:02 31° N 00:21:02 31° N 00:22:57 10° N visible
25 May ? 23:49:47 23° NE 23:49:47 23° NE 23:51:42 10° NNE visible
26 May ? 01:23:42 11° WNW 01:23:42 11° WNW 01:23:59 10° NW visible
26 May ? 23:18:30 12° ENE 23:18:30 12° ENE 23:19:27 10° NE visible
27 May ? 00:52:25 22° NW 00:52:25 22° NW 00:53:57 10° NNW visible
28 May ? 00:21:05 33° N 00:21:05 33° N 00:23:08 10° N visible
28 May ? 23:49:44 24° NE 23:49:44 24° NE 23:51:46 10° NNE visible
29 May ? 01:23:38 12° WNW 01:23:38 12° WNW 01:24:03 10° NW visible
29 May ? 23:18:20 12° ENE 23:18:20 12° ENE 23:19:23 10° NE visible
30 May ? 00:52:15 24° NW 00:52:15 24° NW 00:53:54 10° NNW visible
31 May ? 00:20:49 36° N 00:20:49 36° N 00:22:58 10° N visible
31 May ? 23:49:21 24° NE 23:49:21 24° NE 23:51:29 10° NNE visible
